This is the latest recevied weather packets stored in our database for station/object I1SXT-13. If no packets are shown the sender has not sent any weather packets the latest 10 day(s).
| Time | Temp. | Humidity | Pressure | Rain* | Wind** | Luminosity | Snow |
|---|---|---|---|---|---|---|---|
| 1777545567 | 22.78° C | 43% | 1022.1 hPa | 0 mm | - | - | - |
| 1777545270 | 22.22° C | 42% | 1021.6 hPa | 0 mm | - | - | - |
| 1777544966 | 22.22° C | 44% | 1021.4 hPa | 0 mm | - | - | - |
| 1777544669 | 22.22° C | 44% | 1021.3 hPa | 0 mm | - | - | - |
| 1777544365 | 22.22° C | 43% | 1021.3 hPa | 0 mm | - | - | - |
| 1777544068 | 22.22° C | 44% | 1021.4 hPa | 0 mm | - | - | - |
| 1777543764 | 21.67° C | 45% | 1021.6 hPa | 0 mm | - | - | - |
| 1777543466 | 21.67° C | 44% | 1021.9 hPa | 0 mm | - | - | - |
| 1777543170 | 21.67° C | 46% | 1021.5 hPa | 0 mm | - | - | - |
| 1777542865 | 21.67° C | 46% | 1021.8 hPa | 0 mm | - | - | - |
| 1777542264 | 21.11° C | 46% | 1021.5 hPa | 0 mm | - | - | - |
| 1777541967 | 21.11° C | 48% | 1021.6 hPa | 0 mm | - | - | - |
| 1777541366 | 21.11° C | 48% | 1021.5 hPa | 0 mm | - | - | - |
| 1777541069 | 21.11° C | 47% | 1021.4 hPa | 0 mm | - | - | - |
| 1777540765 | 20.56° C | 48% | 1020.8 hPa | 0 mm | - | - | - |
| 1777540468 | 20.56° C | 47% | 1021.2 hPa | 0 mm | - | - | - |
| 1777540164 | 20.56° C | 48% | 1020.7 hPa | 0 mm | - | - | - |
| 1777539867 | 20.56° C | 47% | 1021.1 hPa | 0 mm | - | - | - |
| 1777539570 | 20° C | 50% | 1021.3 hPa | 0 mm | - | - | - |
| 1777539265 | 20° C | 49% | 1021 hPa | 0 mm | - | - | - |
| 1777538968 | 20° C | 49% | 1020.6 hPa | 0 mm | - | - | - |
| 1777538664 | 20° C | 49% | 1020.9 hPa | 0 mm | - | - | - |
| 1777538070 | 19.44° C | 52% | 1020.6 hPa | 0 mm | - | - | - |
| 1777537766 | 20° C | 50% | 1020.8 hPa | 0 mm | - | - | - |
| 1777537469 | 19.44° C | 51% | 1020.5 hPa | 0 mm | - | - | - |
* Rain since midnight (hover to see other rain measurements)
** Current wind speed in m/s (hover to see current wind gust speed)